UAE49K VOBL-OMDB

Flight info

Callsign UAE49K
Flight time N/A
Altitude 40000
Route OPAMO8A/09L OPAMO P574 PAROK Q899 ITURA M762 VAXAS/N0376F240 M762 MIVEK P574 IMPED
Aircraft B772/H-SDE2E3FGHIJ5LORVWXY/LB1D1

Departure

Time 2026-05-06 13:30
Airport Kempegowda International Airport Bengaluru (VOBL)

Arrival

Time N/A
Airport Dubai International Airport (OMDB)
Time Latitude Longitude Altitude Speed Heading
2026-05-06 13:20 13.20181 77.71841 3020 ft 0 kts 270°
2026-05-06 13:21 13.20181 77.71833 3022 ft 7 kts 270°
2026-05-06 13:22 13.20198 77.71790 3017 ft 6 kts 333°
2026-05-06 13:22 13.20281 77.71788 3016 ft 14 kts
2026-05-06 13:22 13.20381 77.71789 3016 ft 14 kts
2026-05-06 13:22 13.20480 77.71790 3016 ft 14 kts
2026-05-06 13:23 13.20520 77.71752 3016 ft 9 kts 274°
2026-05-06 13:23 13.20523 77.71688 3016 ft 10 kts 271°
2026-05-06 13:23 13.20524 77.71598 3016 ft 14 kts 270°
2026-05-06 13:23 13.20524 77.71496 3016 ft 14 kts 269°
2026-05-06 13:24 13.20524 77.71379 3015 ft 22 kts 270°
2026-05-06 13:24 13.20523 77.71217 3015 ft 22 kts 269°
2026-05-06 13:24 13.20524 77.71059 3015 ft 22 kts 272°
2026-05-06 13:24 13.20528 77.70900 3015 ft 22 kts 271°
2026-05-06 13:25 13.20530 77.70740 3015 ft 22 kts 270°
2026-05-06 13:25 13.20532 77.70580 3016 ft 22 kts 270°
2026-05-06 13:25 13.20532 77.70420 3016 ft 22 kts 270°
2026-05-06 13:25 13.20531 77.70223 3016 ft 30 kts 269°
2026-05-06 13:26 13.20534 77.70011 3016 ft 30 kts 271°
2026-05-06 13:26 13.20537 77.69799 3016 ft 30 kts 270°
2026-05-06 13:26 13.20537 77.69587 3015 ft 30 kts 270°
2026-05-06 13:26 13.20539 77.69376 3015 ft 30 kts 271°
2026-05-06 13:27 13.20542 77.69164 3015 ft 30 kts 270°
2026-05-06 13:27 13.20542 77.68952 3015 ft 30 kts 270°
2026-05-06 13:27 13.20545 77.68759 3016 ft 17 kts 271°
2026-05-06 13:27 13.20547 77.68641 3016 ft 11 kts 271°
2026-05-06 13:28 13.20550 77.68631 3016 ft 4 kts 293°
2026-05-06 13:28 13.20598 77.68618 3016 ft 9 kts
2026-05-06 13:28 13.20638 77.68619 3016 ft 9 kts
2026-05-06 13:28 13.20697 77.68620 3019 ft 9 kts
2026-05-06 13:29 13.20724 77.68661 3015 ft 8 kts 99°
2026-05-06 13:29 13.20717 77.68695 3015 ft 0 kts 88°
2026-05-06 13:29 13.20719 77.68756 3016 ft 29 kts 90°
2026-05-06 13:30 13.20714 77.69198 3016 ft 94 kts 90°
2026-05-06 13:30 13.20709 77.70070 3016 ft 149 kts 91°
2026-05-06 13:30 13.20708 77.71273 3204 ft 177 kts 89°
2026-05-06 13:30 13.20772 77.72563 3786 ft 184 kts 83°
2026-05-06 13:31 13.21229 77.73785 4291 ft 193 kts 47°
2026-05-06 13:31 13.22335 77.74652 4472 ft 208 kts 41°
2026-05-06 13:31 13.23118 77.75933 4585 ft 222 kts 69°
2026-05-06 13:31 13.23918 77.77355 4681 ft 243 kts 40°
2026-05-06 13:32 13.25508 77.78072 4909 ft 264 kts
2026-05-06 13:32 13.27367 77.77937 5359 ft 273 kts 353°
2026-05-06 13:32 13.29269 77.77664 6047 ft 277 kts 354°
2026-05-06 13:32 13.31193 77.77473 6686 ft 276 kts 357°
2026-05-06 13:33 13.33123 77.77378 6996 ft 282 kts 360°
2026-05-06 13:33 13.35106 77.77360 6984 ft 285 kts
2026-05-06 13:33 13.37049 77.77387 7015 ft 281 kts
2026-05-06 13:33 13.39004 77.77431 7096 ft 282 kts
2026-05-06 13:34 13.40971 77.77479 7741 ft 282 kts
2026-05-06 13:34 13.42913 77.77304 8244 ft 285 kts 342°
2026-05-06 13:34 13.44677 77.76350 8704 ft 289 kts 330°
2026-05-06 13:34 13.46423 77.75292 9269 ft 293 kts 332°
2026-05-06 13:35 13.48194 77.74252 9953 ft 293 kts 332°
2026-05-06 13:35 13.49997 77.73199 10320 ft 307 kts 332°
2026-05-06 13:35 13.51921 77.72077 10533 ft 328 kts 332°
2026-05-06 13:35 13.53940 77.70898 11072 ft 338 kts 332°
2026-05-06 13:36 13.56010 77.69690 11789 ft 343 kts 332°
2026-05-06 13:36 13.58069 77.68489 12631 ft 346 kts 331°
2026-05-06 13:36 13.60182 77.67257 13452 ft 352 kts 331°
2026-05-06 13:36 13.62330 77.66002 14226 ft 356 kts 331°
2026-05-06 13:37 13.64491 77.64740 15070 ft 358 kts 330°
2026-05-06 13:37 13.66679 77.63463 15788 ft 365 kts 330°
2026-05-06 13:37 13.68898 77.62166 16646 ft 367 kts 329°
2026-05-06 13:37 13.71132 77.60860 17417 ft 373 kts 329°
2026-05-06 13:38 13.73410 77.59526 18071 ft 381 kts 329°
2026-05-06 13:38 13.75738 77.58165 18704 ft 386 kts 329°
2026-05-06 13:38 13.78086 77.56792 19400 ft 390 kts 329°
2026-05-06 13:38 13.80454 77.55407 20114 ft 393 kts 329°
2026-05-06 13:39 13.82849 77.54006 20806 ft 398 kts 329°
2026-05-06 13:39 13.85266 77.52592 21488 ft 402 kts 329°
2026-05-06 13:39 13.87708 77.51162 22145 ft 407 kts 329°
2026-05-06 13:39 13.90185 77.49712 22802 ft 411 kts 328°
2026-05-06 13:40 13.92648 77.48270 23478 ft 415 kts 328°
2026-05-06 13:40 13.95170 77.46793 24035 ft 419 kts 329°
2026-05-06 13:40 13.97713 77.45303 24601 ft 423 kts 329°
2026-05-06 13:40 14.00283 77.43797 25163 ft 426 kts 329°
2026-05-06 13:41 14.02872 77.42279 25703 ft 430 kts 329°
2026-05-06 13:41 14.05489 77.40745 26262 ft 434 kts 329°
2026-05-06 13:41 14.08118 77.39204 26788 ft 437 kts 329°
2026-05-06 13:41 14.10777 77.37643 27331 ft 441 kts 329°
2026-05-06 13:42 14.13456 77.36071 27832 ft 445 kts 329°
2026-05-06 13:42 14.16158 77.34486 28318 ft 449 kts 329°
2026-05-06 13:42 14.18883 77.32885 28794 ft 453 kts 329°
2026-05-06 13:42 14.21631 77.31272 29249 ft 456 kts 329°
2026-05-06 13:43 14.24404 77.29643 29715 ft 460 kts 329°
2026-05-06 13:43 14.27196 77.28002 30125 ft 463 kts 329°
2026-05-06 13:43 14.30003 77.26352 30489 ft 466 kts 329°
2026-05-06 13:43 14.32833 77.24688 30853 ft 469 kts 329°
2026-05-06 13:44 14.35638 77.23039 31194 ft 472 kts 329°
2026-05-06 13:44 14.38500 77.21355 31558 ft 474 kts 328°
2026-05-06 13:44 14.41369 77.19666 31911 ft 476 kts 328°
2026-05-06 13:44 14.44261 77.17963 32207 ft 479 kts 329°
2026-05-06 13:45 14.47168 77.16251 32501 ft 482 kts 328°
2026-05-06 13:45 14.53021 77.12803 33101 ft 487 kts 329°
2026-05-06 13:45 14.55927 77.11004 33347 ft 488 kts 323°
2026-05-06 13:46 14.58526 77.08756 33567 ft 487 kts 312°
2026-05-06 13:46 14.60720 77.06104 33924 ft 485 kts 305°
2026-05-06 13:46 14.62482 77.03147 34165 ft 484 kts 296°
2026-05-06 13:46 14.64001 77.00054 34459 ft 483 kts 295°
2026-05-06 13:47 14.65509 76.96951 34753 ft 482 kts 295°
2026-05-06 13:47 14.67017 76.93861 35058 ft 482 kts 296°
2026-05-06 13:47 14.68512 76.90826 35407 ft 480 kts 295°
2026-05-06 13:47 14.70035 76.87764 35795 ft 477 kts 295°
2026-05-06 13:48 14.71559 76.84715 36056 ft 479 kts 296°
2026-05-06 13:48 14.73096 76.81649 36204 ft 482 kts 296°
2026-05-06 13:48 14.74641 76.78573 36500 ft 482 kts 296°
2026-05-06 13:48 14.76186 76.75496 36823 ft 481 kts 296°
2026-05-06 13:49 14.77722 76.72436 37181 ft 479 kts 296°
2026-05-06 13:49 14.79254 76.69383 37548 ft 478 kts 296°
2026-05-06 13:49 14.80781 76.66335 37864 ft 477 kts 296°